Location: *
(45.9500°N, 9.0833°E)
Time: 00:48:17
(UTC+00:00)

SR - Pass Details

Date: 20 June 2021
Orbit: 577 x 878 km, 66.7° (Epoch: 23 July)

Event Time Altitude Azimuth Distance (km) Brightness Sun altitude
Rises 00:16:41 0° 327° (NNW) 3,318 ? -19.6°
Reaches altitude 10° 00:19:13 10° 330° (NNW) 2,339 ? -19.5°
Maximum altitude 00:24:34 73° 54° (NE) 767 ? -19.3°
Enters shadow 00:28:03 19° 138° (SE) 1,612 ? -19.2°
Drops below altitude 10° 00:29:24 10° 140° (SE) 2,123 - -19.1°
Sets 00:31:37 0° 143° (SE) 2,988 - -19.0°
